Regional Weather Roundup
Issued by NWS

Home | Current Version | Previous Version | Graphics & Text | Print | Product List | Glossary On
Versions: 1 2 3 4 5 6 7 8 9 10 11 12 13 14 15 16 17 18 19 20 21 22 23 24 25 26 27 28 29 30 31 32 33 34 35 36 37 38 39 40 41 42 43 44 45 46 47 48 49 50
000
ASUS43 KLMK 250202
RWRKY
KENTUCKY REGIONAL WEATHER ROUNDUP
NATIONAL WEATHER SERVICE LOUISVILLE KY
1000 PM EDT TUE MAY 24 2016

NOTE "FAIR" INDICATES FEW OR NO CLOUDS BELOW 12,000 FEET
WITH NO SIGNIFICANT WEATHER AND/OR OBSTRUCTIONS TO VISIBILITY.

KYZ001>023-026-027-061>063-070>075-250300-
WESTERN AND SOUTH CENTRAL KENTUCKY

CITY           SKY/WX    TMP DP  RH WIND       PRES   REMARKS
PADUCAH        CLOUDY    70  63  78 CALM      29.99F
HENDERSON      CLOUDY    73  59  60 SE7       30.01R
OWENSBORO      CLOUDY    74  62  66 SE7       30.04S
HOPKINSVILLE   NOT AVBL
BOWLING GREEN  CLOUDY    73  60  63 CALM      30.08R
GLASGOW        NOT AVBL
$$

KYZ024-025-028>034-038-045-046-053-250300-
NORTH CENTRAL KENTUCKY

CITY           SKY/WX    TMP DP  RH WIND       PRES   REMARKS
LOUISVILLE/SDF PTCLDY    77  55  46 SW7       30.07R
LOUISVILLE/LOU CLEAR     76  55  48 CALM      30.07R
FORT KNOX      NOT AVBL
$$

KYZ035>037-039>044-047>052-055>060-089>105-250300-
NORTHEAST KENTUCKY

CITY           SKY/WX    TMP DP  RH WIND       PRES   REMARKS
LEXINGTON      CLEAR     69  51  52 SE6       30.11S
COVINGTON      CLEAR     68  51  54 S5        30.08S
FRANKFORT      CLEAR     70  55  59 SE3       30.08S
$$

KYZ054-064>069-076>088-106>120-250300-
SOUTHEAST KENTUCKY

CITY           SKY/WX    TMP DP  RH WIND       PRES   REMARKS
JACKSON        CLEAR     69  47  45 CALM      30.15R
LONDON         CLEAR     64  53  67 CALM      30.14R
SOMERSET       NOT AVBL
MIDDLESBORO    CLEAR     63  51  65 W5        30.16R
MONTICELLO     CLOUDY    66  61  84 CALM      30.14R
$$




USA.gov is the U.S. government's official web portal to all federal, state and local government web resources and services.